Flag for Canada Weather past 2 weeks in Coral Harbour, Nunavut Territory, Canada

Now
39 °F

Passing clouds.


Feels Like: 32 °F
Forecast: 34 / 48 °F
Wind: 13 mph from North

Location: Coral Harbour

Current Time: Aug 22, 2014 at 9:28:01 PM

Latest Report: Aug 22, 2014 at 9:00 PM


Visibility: 15 mi

Pressure: 30.20 "Hg

Humidity: 81%

Dew point: 34 °F

Location of Coral HarbourLocation

Historic Weather in Coral Harbour — Graph

°F

Coral Harbour temperature yesterday

Maximum temperature yesterday: 55 °F (at 2:00 PM)
Minimum temperature yesterday: 39 °F (at 3:00 AM)
Average temperature yesterday: 46 °F

Past Weeks' High & Low Weather Summary

 TemperatureHumidityPressure
High57 °F (Aug 8, 4:00 PM)100% (Aug 10, 4:00 AM)30.25 "Hg (Aug 10, 4:00 AM)
Low32 °F (Aug 17, 4:00 AM)38% (Aug 8, 2:00 PM)29.33 "Hg (Aug 18, 10:00 AM)
Average44 °F80%29.84 "Hg
* Reported Aug 7 7:00 PM — Aug 22 7:00 PM, Coral Harbour, Weather by CustomWeather, © 2014

Note: Actual official high and low records may vary slightly from our data, if they occured in-between our weather recording intervals... More about our weather records

Advertising

Coral Harbour weather history for previous 24 hours

 ConditionsComfort  
Time TempWeatherWind HumidityBarometerVisibility
7:00 PM
Aug 22
43 °FPassing clouds.18 mph71%30.18 "Hg15 mi
6:00 PM45 °FPassing clouds.23 mph66%30.14 "Hg15 mi
5:00 PM46 °FBroken clouds.18 mph66%30.13 "Hg15 mi
4:00 PM43 °FPartly sunny.26 mph71%30.11 "Hg15 mi
3:00 PM43 °FPartly sunny.21 mph71%30.08 "Hg15 mi
2:00 PM45 °FPartly sunny.12 mph71%30.07 "Hg15 mi
1:00 PM43 °FLow clouds.20 mph76%30.05 "Hg15 mi
12:00 PM43 °FLow clouds.28 mph76%30.00 "Hg15 mi
11:00 AM41 °FLow clouds.22 mph81%29.99 "Hg15 mi
10:00 AM41 °FLow clouds.10 mph81%30.00 "Hg15 mi
9:00 AM41 °FLow clouds.17 mph81%29.97 "Hg15 mi
8:46 AMN/AFog.17 mphN/AN/A3 mi
8:00 AM39 °FLight rain. Fog.25 mph81%29.94 "Hg1 mi
7:00 AM39 °FLight rain. Fog.25 mph87%29.94 "Hg1 mi
6:00 AM39 °FLight rain. Overcast.22 mph87%29.89 "Hg12 mi
5:00 AM43 °FLight rain. Low clouds.13 mph93%29.88 "Hg8 mi
4:00 AM45 °FLight rain. Fog.12 mph93%29.88 "Hg3 mi
3:00 AM45 °FDrizzle. Fog.13 mph93%29.87 "Hg0 mi
2:00 AM46 °FFog.9 mph100%29.85 "Hg0 mi
1:00 AM46 °FFog.9 mph93%29.87 "Hg0 mi
12:00 AM46 °FFog.7 mph93%29.88 "Hg2 mi
11:00 PM
Aug 21
45 °FMostly cloudy.7 mph93%29.88 "Hg10 mi
10:00 PM45 °FMostly cloudy.5 mph93%29.88 "Hg15 mi
9:00 PM46 °FMostly cloudy.6 mph93%29.90 "Hg15 mi
Weather by CustomWeather, © 2014

See weather overviewHow to use our weather pages